This is the latest recevied weather packets stored in our database for station/object KY4GW. If no packets are shown the sender has not sent any weather packets the latest 10 day(s).
| Time | Temp. | Humidity | Pressure | Rain* | Wind** | Luminosity | Snow |
|---|---|---|---|---|---|---|---|
| 1778094440 | 16.67° C | 63% | 1015.5 hPa | 0 mm | - | 306 W/m² | - |
| 1778094137 | 16.67° C | 61% | 1015.5 hPa | 0 mm | - | 384 W/m² | - |
| 1778093834 | 16.67° C | 63% | 1015.5 hPa | 0 mm | - | 355 W/m² | - |
| 1778093530 | 16.11° C | 62% | 1015.5 hPa | 0 mm | - | 428 W/m² | - |
| 1778093228 | 16.11° C | 63% | 1015.5 hPa | 0 mm | - | 473 W/m² | - |
| 1778092925 | 15.56° C | 63% | 1015.5 hPa | 0 mm | - | 360 W/m² | - |
| 1778092621 | 15.56° C | 64% | 1015.5 hPa | 0 mm | - | 519 W/m² | - |
| 1778092317 | 15.56° C | 63% | 1015.5 hPa | 0 mm | - | 391 W/m² | - |
| 1778092015 | 15.56° C | 64% | 1015.5 hPa | 0 mm | - | 346 W/m² | - |
| 1778091711 | 15.56° C | 65% | 1015.5 hPa | 0 mm | - | 521 W/m² | - |
| 1778091404 | 15.56° C | 65% | 1015.5 hPa | 0 mm | - | 591 W/m² | - |
| 1778091101 | 15° C | 67% | 1015.1 hPa | 0 mm | - | 371 W/m² | - |
| 1778090798 | 15.56° C | 66% | 1015.1 hPa | 0 mm | - | 315 W/m² | - |
| 1778090494 | 15° C | 66% | 1015.1 hPa | 0 mm | - | 964 W/m² | - |
| 1778090191 | 15° C | 66% | 1015.5 hPa | 0 mm | - | 880 W/m² | - |
| 1778089887 | 14.44° C | 68% | 1015.5 hPa | 0 mm | - | 347 W/m² | - |
| 1778089586 | 14.44° C | 67% | 1015.5 hPa | 0 mm | - | 1018 W/m² | - |
| 1778089282 | 14.44° C | 67% | 1015.1 hPa | 0 mm | - | 670 W/m² | - |
| 1778088980 | 14.44° C | 69% | 1015.1 hPa | 0 mm | - | 285 W/m² | - |
| 1778088676 | 15° C | 70% | 1015.1 hPa | 0 mm | - | 1042 W/m² | - |
| 1778088374 | 14.44° C | 72% | 1015.5 hPa | 0 mm | - | 929 W/m² | - |
| 1778088070 | 14.44° C | 69% | 1015.5 hPa | 0 mm | - | 269 W/m² | - |
| 1778087768 | 13.89° C | 70% | 1015.5 hPa | 0 mm | - | 314 W/m² | - |
| 1778087465 | 14.44° C | 69% | 1015.8 hPa | 0 mm | - | 263 W/m² | - |
| 1778087162 | 13.89° C | 70% | 1015.8 hPa | 0 mm | - | 804 W/m² | - |
* Rain latest hour (hover to see other rain measurements)
** Current wind speed in m/s (hover to see current wind gust speed)